星链-31965 (STARLINK-31965 )

导读

STARLINK-31965是美国太空探索技术公司(SpaceX)星链(Starlink)项目的卫星,于2024年5月28日发射升空,星链项目旨在打造全球低轨卫星互联网星座,为全球偏远地区、海洋等场景提供高速低延迟的宽带互联网接入服务。该卫星入轨后将进一步扩充星链星座规模,助力提升星座的全球覆盖能力与服务稳定性,目前星链已成为全球规模最大的低地球轨道卫星群。

基本信息
目录编号:
59888
目录名称:
STARLINK-31965
国际标识:
2024-100D
轨道中心:
EARTH
卫星名称:
星链-31965
卫星全名:
星链-31965 (STARLINK-31965 )
卫星状态:
在轨 (已飞行837 天)
发射日期:
2024-05-28 UTC
国别 :
美国 (US)
星等 :
--
该卫星已列入 空间交会检测服务 Space Conjunction Data Service (SCDS) ,当前飞行风险评估等级: 高风险
轨道信息
数据来源 国际轨道数据 AOE轨道数据
星历时间 2026-09-11T10:50:33+0800
1天前
查看轨道信息
2026-09-06T23:00:00+0800
5天前
查看轨道信息
半长轴 6861.143km 6861.131km
偏心率 0.0001484 0.0001437
轨道倾角 43.000° 43.000°
近地点辐角 256.457° 252.412°
升交点赤经 158.384° 183.761°
平近点角 103.612° 207.975°
近地点 481.987km 482.008km
远地点 484.025km 483.98km
周期 94.266分钟 94.266分钟
每日圈数 15.275947 15.275987
详细信息
固有亮度:
5
最大亮度:
1.5
卫星平台:
Starlink v2.0 mini
覆盖范围:
全球
运营商:
太空探索技术公司
运营商所在国:
美国
制造商(研发单位):
太空探索技术公司
制造商所在国:
美国
使用方式:
暂无
卫星简介
星链(Starlink)计划是由太空探索技术公司(SpaceX)提出的一个巨型低轨卫星互联网星座项目,计划在2019年至2024年间在太空搭建由约1.2万颗卫星组成的“星链”网络,其中1584颗将部署在地球上空550千米处的近地轨道,并从2020年开始工作。该卫星仍在工作。
2D轨道图
3D轨道图
轨道高度分析图
轨道倾角分析图
轨道综合分析图
查看轨道综合分析图
交会数据列表
事件ID 空间交会对象 最接近时刻(TCA) 交会距离 交会风险概率(CRP) 交会风险指数(CRI) 操作
CDM_260913-091105-806005-988822
2026-09-13T
09:11:50+0000
0.152 km
中距离
8.328349E-4 高风险 0.93
CDM_260912-021703-945105-988822
SWARM B (39451)
2026-09-12T
02:17:09+0000
0.350 km
远距离
3.919331E-4 高风险 0.87
CDM_260914-000605-806005-988822
2026-09-14T
00:06:18+0000
0.416 km
远距离
2.130447E-4 高风险 0.82
CDM_260913-085405-669205-988821
2026-09-13T
08:54:31+0000
0.465 km
远距离
1.939023E-4 高风险 0.81
CDM_260910-230805-806005-988821
2026-09-10T
23:08:03+0000
0.639 km
远距离
7.340561E-5 中风险 0.72
CDM_260914-060505-669205-988821
2026-09-14T
06:05:35+0000
0.981 km
远距离
2.225776E-5 中风险 0.62
CDM_260914-043105-669205-988821
2026-09-14T
04:31:26+0000
1.503 km
极远距离
5.171365E-6 低风险 0.49
CDM_260913-102805-669205-988821
2026-09-13T
10:28:40+0000
1.527 km
极远距离
4.91324E-6 低风险 0.49
CDM_260913-073705-806005-988822
2026-09-13T
07:37:41+0000
1.726 km
极远距离
2.855772E-6 低风险 0.44
CDM_260913-104505-806005-988822
2026-09-13T
10:45:59+0000
1.782 km
极远距离
2.607068E-6 低风险 0.43
与全量物体交会距离演化趋势
与全量物体交会风险概率演化趋势